NOAA 16 DEB, 41520

Orbit data source: Space-Track

NOAA 16 DEB, 41520 is space debris in SSO originally from a launch on Thu, 21 Sep 2000 UTC launched from the Air Force Western Test Range (AFWTR). Debris objects in space refer to the collection of defunct objects orbiting the Earth. Examples of debris include non-operational satellites, rocket bodies, and fragments generated from explosions, collisions, or faulty payload assembly.

Loading next visibility...
Identifier
41520, 2000-055MU
Orbit
SSO
Country
Flag of USUS
Related business
Manufacturer
Unknown
Mission
Spacecraft
Bus & Motor
Unknown
Mass
Unknown
Launch date (UTC)
2000-09-21 (26 years ago)
Launch vehicle
Unknown
Launch site
Air Force Western Test Range (AFWTR)
Object type
Payload
Rocket body
Debris
Shape & HBR
Unknown shape, 0.1 m
Radar Cross Section
Medium (>0.1 m² and <1 m²)

Expand to show TLE details & history
Last TLE update: 2 days ago

TLE from 2 days ago
0 NOAA 16 DEB
1 41520U 00055MU  26235.39427010  .00049146  00000-0  50222-2 0  9993
2 41520  98.8562  37.0830 0016109 114.8194 245.4698 14.90277848536808
Epoch: 2026-08-23T09:27Z
TLE epoch observation values (Epoch: 2026-08-23T09:27:44.936Z)
Latitude
-0.00003°
Longitude
-76.54518°
Altitude
604.755 km
Speed
7.555 km/s
True Right ascension
02h 28m 19s
True Declination
0° 00' 00"
Sunlit
Object was in full shadow at epoch
Visualization orbit readout
Latitude
Unknown
Longitude
Unknown
Altitude
Unknown
Speed
Unknown
Apparent Right ascension
Unknown
Apparent Declination
Unknown
Sunlit
N/A
Visualization observer readout
Local Sidereal Time
05:19:30
Azimuth
Unknown
Elevation
Unknown
Doppler factor
Unknown
Orbital elements
Apogee altitude
605.373 km
Perigee altitude
582.91 km
Semi-major axis
6,972.278 km
Eccentricity
0.00161
Inclination
98.8562°
RAAN
37.083°
Arg. of periapsis
114.8194°
True anomaly
245.30201°
Mean anomaly
245.4698°
Eccentric anomaly
245.38589°
Mean motion
3.72804 °/min
Orbital period
96.57 mins
BSTAR
0.0050222
Loading maneuver chart data...
Computing Atmospheric mass density...
Loading historical data...
Loading historical data...
Loading historical data...
Loading historical data...
Loading historical data...
Loading historical data...
Loading historical data...

Documentation

Showing up to 5 results
|